| time (UTC) | temp F | wind direction | speed MPH | gust MPH | rain 1hr in | rain 24hr in | rain mn in | humidity % | barometer mb |
| 20260510233040 | 56 | 171 | 0.0 | 3.0 | 0.00 | 0.19 | 0.07 | 90 | 1013.3 |
| 20260510231529 | 56 | 171 | 0.0 | 3.0 | 0.00 | 0.19 | 0.07 | 89 | 1013.1 |
| 20260510230029 | 57 | 171 | 0.0 | 5.0 | 0.00 | 0.19 | 0.07 | 88 | 1012.8 |
| 20260510224532 | 57 | 165 | 0.0 | 5.0 | 0.00 | 0.22 | 0.07 | 88 | 1012.6 |
| 20260510223028 | 57 | 165 | 0.0 | 3.0 | 0.00 | 0.22 | 0.07 | 88 | 1012.8 |
| 20260510221527 | 57 | 165 | 0.0 | 5.0 | 0.00 | 0.22 | 0.07 | 88 | 1012.7 |
| 20260510220027 | 57 | 165 | 0.0 | 2.0 | 0.00 | 0.22 | 0.07 | 88 | 1012.6 |
| 20260510214527 | 57 | 165 | 0.0 | 6.0 | 0.00 | 0.23 | 0.07 | 86 | 1012.7 |
| 20260510213026 | 58 | 175 | 0.0 | 5.0 | 0.00 | 0.23 | 0.07 | 85 | 1012.6 |
| 20260510211526 | 59 | 175 | 0.0 | 4.0 | 0.00 | 0.23 | 0.07 | 84 | 1012.7 |
| 20260510210025 | 60 | 171 | 2.0 | 5.0 | 0.00 | 0.23 | 0.07 | 82 | 1012.5 |
| 20260510204527 | 61 | 180 | 1.0 | 6.0 | 0.00 | 0.23 | 0.07 | 82 | 1012.5 |
| 20260510203035 | 61 | 178 | 0.0 | 2.0 | 0.00 | 0.23 | 0.07 | 84 | 1012.3 |
| 20260510201523 | 60 | 177 | 0.0 | 1.0 | 0.00 | 0.23 | 0.07 | 85 | 1012.4 |
| 20260510200021 | 60 | 177 | 0.0 | 4.0 | 0.00 | 0.23 | 0.07 | 86 | 1012.6 |
| 20260510194521 | 59 | 178 | 0.0 | 4.0 | 0.00 | 0.23 | 0.07 | 87 | 1012.7 |
| 20260510193019 | 59 | 176 | 0.0 | 4.0 | 0.00 | 0.23 | 0.07 | 86 | 1012.8 |
| 20260510191522 | 60 | 175 | 0.0 | 1.0 | 0.00 | 0.23 | 0.07 | 86 | 1012.8 |
| 20260510190018 | 60 | 176 | 0.0 | 5.0 | 0.00 | 0.23 | 0.07 | 87 | 1012.7 |
| 20260510184518 | 60 | 177 | 1.0 | 6.0 | 0.00 | 0.23 | 0.07 | 89 | 1012.8 |
| 20260510183030 | 59 | 179 | 2.0 | 6.0 | 0.00 | 0.23 | 0.07 | 88 | 1013.0 |
| 20260510181515 | 59 | 213 | 1.0 | 5.0 | 0.00 | 0.23 | 0.07 | 87 | 1013.1 |
| 20260510180014 | 59 | 180 | 0.0 | 6.0 | 0.00 | 0.23 | 0.07 | 88 | 1013.0 |
| 20260510174515 | 59 | 171 | 0.0 | 5.0 | 0.00 | 0.23 | 0.07 | 87 | 1013.0 |
| 20260510173013 | 60 | 175 | 0.0 | 4.0 | 0.00 | 0.23 | 0.07 | 87 | 1013.0 |
| 20260510171511 | 60 | 175 | 1.0 | 7.0 | 0.00 | 0.23 | 0.07 | 89 | 1012.8 |
| 20260510170010 | 59 | 212 | 2.0 | 5.0 | 0.00 | 0.23 | 0.07 | 91 | 1012.9 |
| 20260510164505 | 58 | 193 | 1.0 | 4.0 | 0.00 | 0.23 | 0.07 | 92 | 1012.9 |
| 20260510163007 | 57 | 178 | 1.0 | 3.0 | 0.00 | 0.23 | 0.07 | 93 | 1013.1 |
| 20260510161502 | 57 | 178 | 0.0 | 4.0 | 0.00 | 0.23 | 0.07 | 94 | 1013.3 |
| 20260510160109 | 56 | 182 | 0.0 | 3.0 | 0.00 | 0.23 | 0.07 | 94 | 1013.2 |
| 20260510154617 | 55 | 183 | 0.0 | 5.0 | 0.00 | 0.23 | 0.07 | 94 | 1013.6 |
| 20260510153058 | 55 | 184 | 0.0 | 2.0 | 0.00 | 0.23 | 0.07 | 93 | 1013.9 |
| 20260510151555 | 56 | 185 | 0.0 | 3.0 | 0.00 | 0.23 | 0.07 | 94 | 1013.6 |
| 20260510150054 | 55 | 188 | 1.0 | 6.0 | 0.00 | 0.23 | 0.07 | 94 | 1013.4 |
| 20260510144554 | 55 | 169 | 1.0 | 5.0 | 0.00 | 0.23 | 0.07 | 95 | 1013.2 |
| 20260510143054 | 55 | 169 | 0.0 | 1.0 | 0.00 | 0.23 | 0.07 | 94 | 1013.1 |
| 20260510141550 | 55 | 169 | 0.0 | 0.0 | 0.01 | 0.23 | 0.07 | 95 | 1013.0 |
| 20260510140048 | 55 | 169 | 0.0 | 5.0 | 0.01 | 0.23 | 0.07 | 95 | 1012.7 |
| 20260510134548 | 55 | 169 | 0.0 | 3.0 | 0.01 | 0.23 | 0.07 | 95 | 1012.5 |
| 20260510133047 | 55 | 169 | 0.0 | 3.0 | 0.01 | 0.23 | 0.07 | 96 | 1012.4 |
| 20260510131545 | 55 | 169 | 0.0 | 4.0 | 0.00 | 0.22 | 0.06 | 96 | 1012.2 |
| 20260510130046 | 54 | 169 | 0.0 | 5.0 | 0.00 | 0.22 | 0.06 | 96 | 1012.4 |
| 20260510124604 | 54 | 169 | 0.0 | 1.0 | 0.00 | 0.22 | 0.06 | 96 | 1012.5 |
| 20260510123041 | 53 | 176 | 0.0 | 3.0 | 0.00 | 0.22 | 0.06 | 95 | 1012.2 |
| 20260510121539 | 53 | 178 | 0.0 | 1.0 | 0.00 | 0.22 | 0.06 | 95 | 1012.5 |
| 20260510120039 | 54 | 178 | 0.0 | 1.0 | 0.00 | 0.22 | 0.06 | 96 | 1012.2 |
| 20260510114541 | 53 | 178 | 0.0 | 0.0 | 0.00 | 0.22 | 0.06 | 96 | 1012.3 |
| 20260510113037 | 53 | 178 | 0.0 | 1.0 | 0.00 | 0.22 | 0.06 | 96 | 1012.3 |
| 20260510111557 | 52 | 178 | 0.0 | 0.0 | 0.01 | 0.22 | 0.06 | 95 | 1012.4 |
| 20260510110032 | 52 | 178 | 0.0 | 0.0 | 0.01 | 0.22 | 0.06 | 95 | 1012.3 |
| 20260510104540 | 52 | 178 | 0.0 | 1.0 | 0.01 | 0.22 | 0.06 | 95 | 1012.0 |
| 20260510103036 | 52 | 178 | 0.0 | 1.0 | 0.01 | 0.22 | 0.06 | 95 | 1012.1 |
| 20260510101529 | 52 | 178 | 0.0 | 0.0 | 0.00 | 0.21 | 0.05 | 95 | 1012.2 |
| 20260510100027 | 52 | 179 | 0.0 | 3.0 | 0.00 | 0.21 | 0.05 | 95 | 1012.0 |
| 20260510094524 | 51 | 178 | 0.0 | 1.0 | 0.00 | 0.21 | 0.05 | 95 | 1011.7 |
| 20260510093022 | 51 | 178 | 0.0 | 2.0 | 0.01 | 0.21 | 0.05 | 95 | 1011.6 |
| 20260510091540 | 51 | 178 | 0.0 | 0.0 | 0.01 | 0.21 | 0.05 | 95 | 1011.5 |
| 20260510090018 | 51 | 178 | 0.0 | 0.0 | 0.01 | 0.21 | 0.05 | 95 | 1011.4 |
| 20260510084517 | 51 | 178 | 0.0 | 0.0 | 0.01 | 0.21 | 0.05 | 95 | 1011.3 |
| 20260510081529 | 50 | 178 | 0.0 | 0.0 | 0.00 | 0.20 | 0.04 | 94 | 1011.3 |
| 20260510080012 | 50 | 178 | 0.0 | 0.0 | 0.01 | 0.20 | 0.04 | 94 | 1011.1 |
| 20260510074511 | 49 | 178 | 0.0 | 0.0 | 0.01 | 0.20 | 0.04 | 94 | 1011.1 |
| 20260510073016 | 49 | 178 | 0.0 | 0.0 | 0.01 | 0.20 | 0.04 | 94 | 1011.0 |
| 20260510071512 | 48 | 178 | 0.0 | 0.0 | 0.01 | 0.20 | 0.04 | 94 | 1010.9 |
| 20260510070011 | 48 | 178 | 0.0 | 0.0 | 0.01 | 0.19 | 0.03 | 94 | 1010.9 |
| 20260510064525 | 48 | 178 | 0.0 | 0.0 | 0.01 | 0.19 | 0.03 | 93 | 1011.0 |
| 20260510063013 | 48 | 178 | 0.0 | 0.0 | 0.01 | 0.19 | 0.03 | 93 | 1011.0 |
| 20260510061505 | 48 | 178 | 0.0 | 0.0 | 0.01 | 0.19 | 0.03 | 93 | 1010.7 |
| 20260510060000 | 48 | 178 | 0.0 | 0.0 | 0.01 | 0.18 | 0.02 | 93 | 1010.8 |
| 20260510054603 | 49 | 178 | 0.0 | 0.0 | 0.01 | 0.18 | 0.02 | 93 | 1010.9 |
| 20260510053105 | 49 | 178 | 0.0 | 0.0 | 0.01 | 0.18 | 0.02 | 93 | 1011.0 |
| 20260510051607 | 49 | 178 | 0.0 | 0.0 | 0.02 | 0.18 | 0.02 | 93 | 1011.0 |
| 20260510050058 | 49 | 178 | 0.0 | 0.0 | 0.01 | 0.17 | 0.01 | 93 | 1011.1 |
| 20260510044602 | 50 | 178 | 0.0 | 0.0 | 0.01 | 0.17 | 0.01 | 93 | 1010.9 |
| 20260510043051 | 50 | 178 | 0.0 | 0.0 | 0.02 | 0.17 | 0.01 | 93 | 1010.8 |
| 20260510041602 | 50 | 178 | 0.0 | 0.0 | 0.01 | 0.16 | 0.00 | 93 | 1010.7 |
| 20260510040048 | 51 | 178 | 0.0 | 0.0 | 0.02 | 0.16 | 0.00 | 93 | 1010.7 |
| 20260510034555 | 51 | 178 | 0.0 | 0.0 | 0.02 | 0.16 | 0.16 | 93 | 1010.8 |
| 20260510033048 | 51 | 178 | 0.0 | 0.0 | 0.02 | 0.15 | 0.15 | 93 | 1010.7 |
| 20260510031549 | 51 | 178 | 0.0 | 0.0 | 0.02 | 0.15 | 0.15 | 93 | 1010.7 |
| 20260510030054 | 52 | 178 | 0.0 | 1.0 | 0.02 | 0.14 | 0.14 | 93 | 1010.8 |
| 20260510024549 | 52 | 178 | 0.0 | 0.0 | 0.02 | 0.14 | 0.14 | 93 | 1010.5 |
| 20260510023042 | 52 | 178 | 0.0 | 0.0 | 0.02 | 0.13 | 0.13 | 93 | 1010.7 |
| 20260510021542 | 52 | 178 | 0.0 | 1.0 | 0.03 | 0.13 | 0.13 | 93 | 1010.8 |
| 20260510020041 | 52 | 178 | 0.0 | 0.0 | 0.02 | 0.12 | 0.12 | 93 | 1011.0 |
| 20260510014540 | 53 | 178 | 0.0 | 3.0 | 0.03 | 0.12 | 0.12 | 93 | 1010.9 |
| 20260510013049 | 53 | 178 | 0.0 | 2.0 | 0.03 | 0.11 | 0.11 | 93 | 1010.9 |
| 20260510011538 | 53 | 177 | 0.0 | 2.0 | 0.02 | 0.10 | 0.10 | 93 | 1010.7 |
| 20260510010038 | 53 | 177 | 0.0 | 4.0 | 0.03 | 0.10 | 0.10 | 93 | 1010.3 |
| 20260510004537 | 53 | 177 | 0.0 | 4.0 | 0.03 | 0.09 | 0.09 | 93 | 1010.5 |
| 20260510003048 | 53 | 175 | 0.0 | 2.0 | 0.02 | 0.08 | 0.08 | 93 | 1010.8 |
| 20260510001536 | 53 | 175 | 0.0 | 2.0 | 0.03 | 0.08 | 0.08 | 92 | 1011.1 |
| 20260510000035 | 53 | 175 | 0.0 | 4.0 | 0.03 | 0.07 | 0.07 | 92 | 1010.7 |
| 20260509234551 | 53 | 178 | 0.0 | 4.0 | 0.02 | 0.06 | 0.06 | 92 | 1010.5 |